Location: Ripley
(48.3812°N, 115.4473°W)
Time: 06:15:56
(UTC+00:00)

VELOX 1 - Pass Details

Date: 06 July 2022
Orbit: 623 x 639 km, 98.4° (Epoch: 09 August)

Event Time Altitude Azimuth Distance (km) Brightness Sun altitude
Rises 11:02:39 0° 131° (SE) 2,928 ? -6.5°
Reaches altitude 10° 11:05:08 10° 118° (ESE) 2,027 ? -6.3°
Maximum altitude 11:08:44 25° 63° (ENE) 1,289 ? -5.8°
Drops below altitude 10° 11:12:22 10° 8° (N) 2,043 ? -5.4°
Sets 11:14:52 0° 356° (N) 2,958 ? -5.1°
